Location: Unspecified
(49.9820°N, 20.4363°E)
Time: 12:52:11
(UTC+01:00)

ISS - Visible Passes

Search period start: 17 February 2019 00:00
Search period end: 27 February 2019 00:00
Orbit: 403 x 411 km, 51.6° (Epoch: 17 February)

Date Brightness Start Highest point End Pass type
(mag) Time Alt. Az. Time Alt. Az. Time Alt. Az.
22 Feb -0.5 05:52:22 10° SSE 05:53:23 11° SE 05:54:25 10° ESE visible
24 Feb -1.4 05:44:01 10° SSW 05:46:35 22° SE 05:49:11 10° E visible
25 Feb -1.0 04:53:32 10° S 04:55:18 14° SE 04:57:04 10° ESE visible
26 Feb -2.6 05:36:46 10° SW 05:39:51 40° SSE 05:42:57 10° E visible
